CAPE
113 91 53 20 5 0 0 0 0 0 0 2 4 8 10 6 17 246 355 466 595 618
0 29 29 3 0 0 0 0 0 0 0 0 13 16 14 13 6 94 289 549 549 697
0 0 0 0 0 0 0 0 0 0 0 10 10 9 11 19 37 74 192 463 654 727
0 0 0 0 0 0 0 0 0 0 1 6 0 0 1 8 77 52 128 301 634 500
0 0 0 0 0 0 0 0 0 3 6 1 0 2 8 7 11 77 165 343 575 349
0 0 0 0 0 0 0 0 0 3 15 0 0 7 7 9 4 130 438 456 357 147
0 0 0 0 0 0 0 0 0 3 4 24 14 6 7 6 9 393 466 268 122 11
0 0 0 0 0 0 0 0 0 0 2 14 8 9 6 94 220 228 109 38 10 1
0 0 0 0 0 0 0 0 0 0 5 4 6 8 48 68 2 2 3 4 8 16
0 0 0 0 0 0 0 0 0 1 3 3 3 8 62 58 2 1 2 3 2 2
0 0 0 0 0 0 0 0 3 2 2 2 2 6 77 6 1 0 1 1 1 1
7 1 0 0 0 0 0 2 1 0 5 0 1 20 13 2 0 0 0 0 0 0
7 6 3 2 0 0 1 3 2 3 8 16 11 21 16 2 0 0 3 1 1 4
6 4 5 1 0 0 1 2 6 5 9 8 8 12 13 3 0 1 0 0 0 0
CIN
-27 -38 -44 -32 -31 -0 -0 -0 -0 -0 -0 -9 -3 -1 -1 -14 -78 -2 -8 -2 -1 -1
-0 -24 -29 -28 -0 -0 -0 -0 -0 -0 -0 -0 -5 -2 -0 -0 -34 -57 -13 -12 -27 -1
-0 -0 -0 -0 -0 -0 -0 -0 -0 -0 -0 -6 -7 -1 -1 -32 -90 -61 -36 -18 -15 -1
-0 -0 -0 -0 -0 -0 -0 -0 -0 -0 -3 -10 -0 -0 -0 -0 -76 -126 -113 -37 -1 -19
-0 -0 -0 -0 -0 -0 -0 -0 -0 -3 -8 -3 -0 -0 -0 -0 -189 -89 -96 -47 -7 -9
-0 -0 -0 -0 -0 -0 -0 -0 -0 -5 -3 -0 -0 -0 -0 -0 -1 -82 -18 -17 -10 -56
-0 -0 -0 -0 -0 -0 -0 -0 -0 -3 -4 -1 -0 -0 -0 -0 -28 -0 -2 -14 -72 -131
-0 -0 -0 -0 -0 -0 -0 -1 -0 -0 -3 -0 -0 -0 -0 -10 -1 -9 -28 -87 -146 -0
-0 -0 -0 -0 -0 -0 -0 -0 -1 -2 -1 -0 -0 -0 -1 -11 -30 -0 -0 -0 -0 -0
-0 -0 -0 -0 -0 -0 -0 -0 -0 -1 -0 -0 -0 -0 -1 -6 -0 -0 -0 -0 -0 -0
-0 -0 -0 -0 -0 -0 -0 -0 -1 -0 -0 -0 -0 -0 -0 -0 -0 -0 -0 -0 -0 -0
-0 -2 -1 -2 -2 -0 -0 -1 -0 -0 -0 -0 -0 -0 -0 -0 -1 -0 -0 -0 -1 -0
-0 -0 -0 -1 -2 -0 -1 -0 -0 -0 -0 -0 -0 -0 -0 -0 -1 -0 -0 -3 -1 -0
-0 -0 -1 -2 -0 -0 -0 -0 -0 -0 -0 -0 -0 -0 -0 -0 -0 -1 -1 -0 -0 -0
Wind_Speed
8 5 7 7 6 6 8 9 11 12 12 10 12 13 13 12 12 11 9 11 10 9
9 8 6 8 6 6 8 8 12 14 14 12 13 12 13 11 13 13 11 11 11 10
8 12 11 7 10 10 9 10 13 15 13 13 12 13 13 13 13 13 11 10 12 11
9 9 10 10 9 10 12 13 15 15 14 10 13 15 14 15 14 15 14 14 14 9
11 8 10 10 12 14 14 12 14 14 11 14 15 15 15 15 14 16 17 15 12 11
11 11 9 12 15 15 16 14 14 14 12 17 16 15 16 16 16 17 15 10 12 14
11 9 11 13 15 15 16 16 16 14 14 14 15 16 15 15 14 14 10 14 15 16
12 12 12 14 14 15 17 14 16 16 14 13 12 11 9 13 4 10 13 13 13 14
14 13 14 11 14 16 16 18 16 16 14 14 10 16 11 7 12 14 16 18 17 20
16 16 15 14 16 17 18 18 19 17 17 15 11 14 5 18 12 19 18 20 20 19
14 16 16 16 16 17 16 19 17 18 17 17 12 20 18 28 19 18 19 21 19 23
14 16 16 16 16 14 15 17 17 15 6 16 17 33 29 26 21 23 21 19 18 22
14 14 14 15 15 13 13 14 10 13 13 23 18 31 37 28 18 24 19 18 21 32
13 13 12 13 12 11 13 9 10 17 13 15 19 25 36 35 18 17 17 16 15 16
Wind_Direction
269 255 259 261 276 283 292 293 303 297 289 282 288 283 283 286 288 271 251 249 239 230
307 288 277 281 278 285 284 293 300 297 287 283 276 273 275 267 270 279 276 262 239 229
306 306 298 294 294 290 287 299 306 297 286 282 283 277 278 268 263 259 257 256 250 228
300 294 300 297 295 300 301 299 298 294 291 299 296 285 276 267 266 269 262 255 239 211
297 297 299 297 301 295 293 294 293 290 292 301 285 280 278 274 266 254 246 238 225 148
298 296 295 297 293 294 295 302 298 297 299 290 282 275 273 267 261 246 231 209 153 146
294 285 293 296 302 305 309 303 302 294 274 274 277 274 258 288 256 231 195 153 145 143
293 294 296 301 305 312 304 302 295 294 293 278 283 280 288 278 195 143 142 132 130 121
299 299 301 320 325 313 318 308 300 299 291 293 285 286 307 91 123 112 110 105 103 107
325 323 318 318 317 313 310 308 303 302 297 285 267 266 190 123 121 100 102 104 104 96
312 309 311 314 312 310 311 308 306 301 290 283 232 201 139 110 96 96 95 96 104 106
310 307 309 308 305 313 313 310 310 305 66 61 83 109 108 100 96 89 86 86 100 104
301 298 300 301 303 314 309 311 323 53 59 81 83 95 98 97 99 93 94 96 91 98
299 298 297 296 310 315 312 316 61 67 61 75 85 84 92 94 91 99 101 96 96 97